sat.trackr.live / text

‹ back to catalog

STARLINK-34763

NORAD 65206 · 2025-176J

PAYLOAD ACTIVE UNKNOWN

§ Identity

Operator
Country
US
Launch date
2025-08-14
Launch site
AFETR
Launch vehicle
Mass (kg)
RCS (m²)

Purposes: comms

External: N2YO · Heavens-Above · Gunter

§ Orbital elements

Epoch: 2026-09-20T21:14:37.407552Z

Period
93.85 min
Inclination
53.1610°
Eccentricity
0.0001008
Mean motion
15.34398421 rev/d
Perigee alt
462.0 km
Apogee alt
463.4 km
Semi-major
6,840.8 km
B*
6.2988e-4
RAAN
321.9592°
Arg perigee
80.5935°
Mean anomaly
279.5181°
Rev number
6,305

§ Raw data

STARLINK-347631 65206U 25176J   26263.88515518  .00020964  00000+0  62988-3 0  99962 65206  53.1610 321.9592 0001008  80.5935 279.5181 15.34398421 63054

JSON: /api/v1/satellites/65206 · /tle

For live sub-satellite position, see the globe view (requires WebGL).

§ Visibility from observer

Set your observer location to see the next 7 days of passes ≥ 10°. The values pass through the URL so the page stays shareable.

No JS? Fill the form by hand. The geolocation button needs JavaScript.